DW5513 Weather Reports


Display with metric or nautical units.
time (UTC)temp
F
wind
direction
speed
MPH
gust
MPH
rain 1hr
in
rain 24hr
in
rain mn
in
humidity
%
barometer
mb
20260505214557 60 208 0.0 1.0 0.00 0.20 0.20 96 1005.9
20260505213051 60 208 0.0 2.0 0.00 0.20 0.20 96 1006.2
20260505211550 60 163 0.0 1.0 0.05 0.20 0.20 96 1006.4
20260505210049 59 161 0.0 2.0 0.12 0.20 0.20 95 1006.1
20260505204549 59 96 0.0 1.0 0.15 0.20 0.20 95 1005.8
20260505203106 58 253 0.0 2.0 0.15 0.20 0.20 93 1006.3
20260505201552 59 323 2.0 12.0 0.09 0.14 0.14 89 1006.7
20260505200051 61 18 4.0 11.0 0.03 0.08 0.08 84 1006.1
20260505194544 68 313 7.0 17.0 0.00 0.05 0.05 70 1005.9
20260505193044 68 235 3.0 6.0 0.03 0.05 0.05 67 1004.4
20260505191545 66 247 0.0 3.0 0.04 0.05 0.05 71 1004.5
20260505190042 64 242 0.0 4.0 0.04 0.05 0.05 74 1004.9
20260505184542 66 143 4.0 14.0 0.04 0.05 0.05 69 1005.4
20260505183040 70 264 5.0 14.0 0.00 0.01 0.01 61 1004.9
20260505181543 74 241 4.0 10.0 0.00 0.01 0.01 52 1004.1
20260505180039 76 326 3.0 10.0 0.00 0.01 0.01 49 1003.6
20260505174541 77 288 5.0 14.0 0.00 0.01 0.01 45 1003.6
20260505173034 77 253 5.0 15.0 0.00 0.01 0.01 44 1003.5
20260505171533 77 236 1.0 5.0 0.00 0.01 0.01 47 1003.7
20260505170038 76 224 2.0 11.0 0.00 0.01 0.01 46 1003.6
20260505164529 77 217 5.0 13.0 0.00 0.01 0.01 46 1003.9
20260505163030 76 264 5.0 10.0 0.00 0.01 0.01 47 1004.2
20260505161522 75 243 5.0 10.0 0.00 0.01 0.01 49 1004.6
20260505153021 75 210 2.0 14.0 0.00 0.01 0.01 50 1004.9
20260505151518 75 171 4.0 11.0 0.00 0.01 0.01 49 1004.8
20260505140107 68 150 1.0 8.0 0.00 0.01 0.01 61 1006.0
20260505124540 62 188 0.0 2.0 0.00 0.01 0.01 73 1006.5
20260505123040 62 250 0.0 2.0 0.00 0.01 0.01 71 1006.4
20260505121538 61 162 0.0 1.0 0.00 0.01 0.01 72 1006.1
20260505120043 62 245 0.0 2.0 0.00 0.01 0.01 71 1006.2
20260505114539 61 242 1.0 6.0 0.00 0.01 0.01 70 1006.3
20260505113033 59 187 0.0 6.0 0.00 0.01 0.01 77 1006.4
20260505111526 55 143 1.0 6.0 0.00 0.01 0.01 85 1006.3
20260505101519 50 41 1.0 3.0 0.01 0.01 0.01 93 1005.9
20260505100020 50 93 0.0 1.0 0.01 0.01 0.01 91 1005.9
20260505094515 52 210 0.0 3.0 0.01 0.01 0.01 89 1006.1
20260505093025 50 51 0.0 3.0 0.00 0.00 0.00 89 1006.1
20260505091510 50 102 0.0 4.0 0.00 0.00 0.00 89 1006.2
20260505090010 50 68 0.0 2.0 0.00 0.00 0.00 87 1006.2
20260505084508 50 53 0.0 2.0 0.00 0.00 0.00 87 1006.0
20260505083008 50 72 0.0 3.0 0.00 0.00 0.00 88 1006.3
20260505081501 49 78 0.0 2.0 0.00 0.00 0.00 89 1006.3
20260505080059 49 79 0.0 2.0 0.00 0.00 0.00 87 1006.2
20260505074558 49 124 0.0 3.0 0.00 0.00 0.00 87 1006.5
20260505073100 48 84 0.0 1.0 0.00 0.00 0.00 87 1006.2
20260505071556 48 80 0.0 3.0 0.00 0.00 0.00 87 1006.2
20260505070055 47 75 0.0 2.0 0.00 0.00 0.00 87 1006.1
20260505064557 47 321 0.0 3.0 0.00 0.00 0.00 87 1006.1
20260505063053 47 24 0.0 2.0 0.00 0.00 0.00 87 1006.2
20260505061550 46 51 0.0 5.0 0.00 0.00 0.00 89 1006.2
20260505060048 46 43 1.0 4.0 0.00 0.00 0.00 88 1006.2
20260505054547 46 72 1.0 3.0 0.00 0.00 0.00 88 1006.2
20260505053049 46 45 1.0 3.0 0.00 0.00 0.00 89 1006.3
20260505051541 46 56 0.0 1.0 0.00 0.00 0.00 89 1006.4
20260505041530 48 76 0.0 2.0 0.00 0.00 0.00 87 1006.3
20260505040026 49 35 0.0 1.0 0.00 0.00 0.00 86 1006.3
20260505034526 49 310 0.0 1.0 0.00 0.02 0.00 86 1006.3
20260505033032 49 39 0.0 2.0 0.00 0.02 0.00 86 1006.2
20260505031523 49 54 0.0 2.0 0.00 0.02 0.00 86 1006.3
20260505030027 50 25 0.0 1.0 0.00 0.02 0.00 86 1006.3
20260505024525 50 41 0.0 2.0 0.00 0.02 0.00 86 1006.4
20260505023022 50 37 0.0 1.0 0.00 0.02 0.00 87 1006.5
20260505021520 50 8 0.0 0.0 0.00 0.02 0.00 87 1006.5
20260505020020 51 8 0.0 1.0 0.00 0.02 0.00 85 1006.6
20260505014520 51 9 0.0 1.0 0.00 0.02 0.00 84 1006.6
20260505013019 52 9 0.0 1.0 0.00 0.02 0.00 82 1006.5
20260505011520 53 10 0.0 1.0 0.00 0.02 0.00 81 1006.5
20260505010017 54 151 0.0 0.0 0.00 0.02 0.00 79 1006.3
20260505004534 56 151 0.0 0.0 0.00 0.02 0.00 77 1006.0
20260505003017 57 151 0.0 0.0 0.00 0.02 0.00 73 1005.9
20260505001514 59 151 0.0 0.0 0.00 0.02 0.00 69 1005.6
20260505000017 62 152 0.0 0.0 0.00 0.02 0.00 66 1005.6
20260504234524 65 176 0.0 0.0 0.00 0.02 0.00 59 1005.6
20260504233013 68 176 0.0 0.0 0.00 0.02 0.00 54 1005.4
20260504231531 67 176 0.0 0.0 0.00 0.02 0.00 53 1005.6
20260504230011 69 177 0.0 1.0 0.00 0.02 0.00 48 1005.4
20260504224508 70 139 0.0 2.0 0.00 0.02 0.00 44 1005.3
20260504223008 69 227 0.0 2.0 0.00 0.02 0.00 44 1005.5
20260504221506 69 251 0.0 4.0 0.00 0.02 0.00 45 1005.5
20260504220006 69 164 0.0 4.0 0.00 0.02 0.00 44 1005.5